SSTL S1-4

Satellite information

Favourite Embed

Satellite Type and Status

PAYLOADIN ORBIT

Key statistics

Satellite SSTL S1-4 at a glance.

Uptime

2645

Days in orbit

Revolutions

≈ 15.0

Per day

Orbit

SSO

Sun Synchronous Orbit

Inclination

97.5

Latest

Satellite identification and parameters

Extended collection of information and parameters for SSTL S1-4.

Object identification

Identified? True

Debris? False

Object name: SSTL S1-4

International designator: 2018-071A

Object number (NORAD): 43618

Object ID (CCSDS): 43618

Country: UNITED KINGDOM (UK)

Current information (Y/N): Y

RCS size: LARGE

Orbital parameters

Period: 96.244 minutes

Inclination: 97.527 deg

SMA: 6956.798 km

Apoapsis: 580.483 km

Periapsis: 576.843 km

RAAN: 220.3413 deg

Eccentricy: 0.0002616

Argument of periapsis: 72.0353 deg

Mean anomaly: 288.1154 deg

Mean motion: 14.96196609 rev/day

Mean motion (dot): 0.00001407 rev/day2

B* drag term: 0.00012969233 1/REarth

Two-line elements (TLE)

Creation date: Dec. 12, 2025, 10:14 a.m.

Reference frame: TEME

Reference center: EARTH

Epoch: Dec. 12, 2025, 7:12 a.m. UTC

TLE line 0: 0 SSTL S1-4

TLE line 1: 1 43618U 18071A 25346.30019144 .00001407 00000-0 12969-3 0 9993

TLE line 2: 2 43618 97.5270 220.3413 0002616 72.0353 288.1154 14.96196609394998

Live tracking on map

Real-time ground track for satellite SSTL S1-4.

In-orbit conjunctions

There are no conjunctions computed for SSTL S1-4, at the moment. Check back to stay up to date, as we update our databases every day.

Go to all conjunctions

Associated space launch

The NovaSAR-S spacecraft carries a radar imaging instrument, and the mission was developed in partnership between the British government and the British satellite manufacturer SSTL. The SSTL-S1 satellite, also built by SSTL, is a high-resolution optical Earth observation satellite identical to three DMC3/TripleSat reconnaissance craft launched in 2015. Beijing-based 21AT will lease imaging capacity on the SSTL-S1 satellite. There are also several secondary payloads.

SSTL S1-4 was lifted into orbit during the mission ‘PSLV-CA | SSTL-S1 & NovaSAR-S’, on board a PSLV space rocket.

The launch took place on Sept. 16, 2018, 4:38 p.m. from Satish Dhawan Space Centre First Launch Pad.

For more information about the launch, click the button.

Launch to space PSLV-CA | SSTL-S1 & NovaSAR-S
PSLV-CA | SSTL-S1 & NovaSAR-S

Agency: N/A

Status: Launch Successful

Launch date: Sept. 16, 2018, 4:38 p.m. UTC

Rocket: PSLV

Launch pad: Satish Dhawan Space Centre First Launch Pad

Location: Satish Dhawan Space Centre, India

...

Latest news about this satellite

There are no fresh news available about this satellite. Check back as we update our databases every day.


Newsletter sign-up

Weekly statistics, charts and insights to help you stay on top of the space industry.